Regional Weather Roundup
Issued by NWS Sioux Falls, SD

Home | Current Version | Previous Version | Text Only | Print | Product List | Glossary Off
Versions: 1 2 3 4 5 6 7 8 9 10 11 12 13 14 15 16 17 18 19 20 21 22 23 24 25 26 27 28 29 30 31 32 33 34 35 36 37 38 39 40 41 42 43 44 45 46 47 48 49 50

000
ASUS43 KFSD 310510
RWRFSD

WEATHER ROUNDUP FOR SE SOUTH DAKOTA/SW MINNESOTA/NW IOWA
NATIONAL WEATHER SERVICE SIOUX FALLS SD
1200 AM CDT THU JUL 31 2014

NOTE: "FAIR" INDICATES FEW OR NO CLOUDS BELOW 12,000 FEET WITH NO
SIGNIFICANT WEATHER AND OR OBSTRUCTIONS TO VISIBILITY.


SDZ038>040-050-052>070-310600-
SOUTHEAST SOUTH DAKOTA

CITY           SKY/WX    TMP DP  RH WIND       PRES   REMARKS
CHAMBERLAIN    PTCLDY    65  55  68 SE6       30.09S
HURON          PTCLDY    66  56  70 SE5       30.08S
MADISON        FAIR      57  57 100 CALM      30.12S
MITCHELL       PTCLDY    69  56  62 S6        30.10S
SIOUX FALLS    CLEAR     61  56  83 NW3       30.11S
WINNER         FAIR      69  54  58 SE10      30.08F
YANKTON        CLEAR     63  57  82 SW3       30.11S
$$

MNZ071-072-080-081-089-090-097-098-310600-
SOUTHWEST MINNESOTA

CITY           SKY/WX    TMP DP  RH WIND       PRES   REMARKS
FAIRMONT       CLEAR     61  46  59 W3        30.09S
JACKSON        CLEAR     59  54  82 CALM      30.11F
LUVERNE        CLEAR     61  54  77 CALM      30.11S
MARSHALL       CLEAR     61  54  77 SW3       30.08F
MONTEVIDEO     CLEAR     63  54  72 W3        30.09S
PIPESTONE      CLEAR     61  57  88 CALM      30.12S
REDWOOD FALLS  CLEAR     65  56  72 W3        30.08S
TRACY          CLEAR     64  56  76 SW5       30.10F
WINDOM         PTCLDY    59  55  88 CALM      30.11S
WORTHINGTON    CLEAR     61  54  77 CALM      30.12S
$$

IAZ001>003-012>014-020>022-031-032-NEZ013-014-SDZ071-310600-
NORTHWEST IOWA

CITY           SKY/WX    TMP DP  RH WIND       PRES   REMARKS
CHEROKEE       CLEAR     58  58  97 CALM      30.11S
DENISON        MOCLDY    57  57 100 CALM      30.10S
ESTHERVILLE    CLEAR     57  54  89 W3        30.10F
LE MARS        CLEAR     57  57 100 CALM      30.12R
ORANGE CITY    CLEAR     66  54  63 CALM      30.11F
SHELDON        CLEAR     55  55 100 CALM      30.10F
SIOUX CITY     CLEAR     59  56  89 CALM      30.11S
SPENCER        CLEAR     56  54  93 CALM      30.11S
STORM LAKE     CLEAR     64  59  82 W6        30.12S
$$

ABBREVIATIONS USED IN REMARKS
   TC - TEMPERATURE IN CELSIUS
  WCI - WIND CHILL INDEX
   HX - HEAT INDEX
  VSB - VISIBILITY



USA.gov is the U.S. government's official web portal to all federal, state and local government web resources and services.